Wetterdaten: Montag, 03.11.2014
Datum Zeit Temp. A. Feuchte A. Luftdruck Regen Wind Richtung Richtung Sonnenschein ET UV Solar Taupunkt Windchill Windben Empfang
03.11.2014 00:00 5,1 C 86 % 1019,2 hPa 0,0 l/m 1,8 km/h (1 Bft) O 88 0 min 0,000 mm 0,0 UV-I 0 W/m 3,0 C 5,1 C 4,0 km/h (1 Bft) 0,00 %
03.11.2014 00:15 5,0 C 86 % 1019,2 hPa 0,0 l/m 0,0 km/h (0 Bft) S-SO 156 0 min 0,000 mm 0,0 UV-I 0 W/m 2,9 C 5,0 C 0,0 km/h (0 Bft) 0,00 %
03.11.2014 00:30 5,1 C 86 % 1019,2 hPa 0,0 l/m 0,0 km/h (0 Bft) S-SO 161 0 min 0,000 mm 0,0 UV-I 0 W/m 3,0 C 5,1 C 0,0 km/h (0 Bft) 0,00 %
03.11.2014 00:45 5,1 C 87 % 1019,2 hPa 0,0 l/m 1,4 km/h (1 Bft) O 80 0 min 0,000 mm 0,0 UV-I 0 W/m 3,1 C 5,1 C 4,0 km/h (1 Bft) 0,00 %
03.11.2014 01:00 5,0 C 87 % 1019,2 hPa 0,0 l/m 0,7 km/h (0 Bft) O-SO 121 0 min 0,000 mm 0,0 UV-I 0 W/m 3,0 C 5,0 C 4,0 km/h (1 Bft) 0,00 %
03.11.2014 01:15 5,0 C 87 % 1019,2 hPa 0,0 l/m 0,0 km/h (0 Bft) O-NO 78 0 min 0,000 mm 0,0 UV-I 0 W/m 3,0 C 5,0 C 0,0 km/h (0 Bft) 0,00 %
03.11.2014 01:30 5,0 C 87 % 1019,2 hPa 0,0 l/m 0,4 km/h (0 Bft) SO 138 0 min 0,000 mm 0,0 UV-I 0 W/m 3,0 C 5,0 C 4,0 km/h (1 Bft) 0,00 %
03.11.2014 01:45 5,0 C 87 % 1019,2 hPa 0,0 l/m 0,0 km/h (0 Bft) N-NO 29 0 min 0,000 mm 0,0 UV-I 0 W/m 3,0 C 5,0 C 0,0 km/h (0 Bft) 0,00 %
03.11.2014 02:00 5,0 C 87 % 1019,2 hPa 0,0 l/m 0,7 km/h (0 Bft) O 87 0 min 0,000 mm 0,0 UV-I 0 W/m 3,0 C 5,0 C 4,0 km/h (1 Bft) 0,00 %
03.11.2014 02:15 5,1 C 87 % 1019,2 hPa 0,0 l/m 0,4 km/h (0 Bft) O 83 0 min 0,000 mm 0,0 UV-I 0 W/m 3,1 C 5,1 C 4,0 km/h (1 Bft) 0,00 %
03.11.2014 02:30 5,0 C 88 % 1019,2 hPa 0,0 l/m 1,4 km/h (1 Bft) O 81 0 min 0,000 mm 0,0 UV-I 0 W/m 3,2 C 5,0 C 4,0 km/h (1 Bft) 0,00 %
03.11.2014 02:45 5,0 C 88 % 1019,2 hPa 0,0 l/m 0,0 km/h (0 Bft) SO 144 0 min 0,000 mm 0,0 UV-I 0 W/m 3,2 C 5,0 C 0,0 km/h (0 Bft) 0,00 %
03.11.2014 03:00 5,1 C 88 % 1019,2 hPa 0,0 l/m 1,8 km/h (1 Bft) O 96 0 min 0,000 mm 0,0 UV-I 0 W/m 3,3 C 5,1 C 4,0 km/h (1 Bft) 0,00 %
03.11.2014 03:15 5,1 C 88 % 1019,2 hPa 0,0 l/m 0,4 km/h (0 Bft) O-SO 109 0 min 0,000 mm 0,0 UV-I 0 W/m 3,3 C 5,1 C 4,0 km/h (1 Bft) 0,00 %
03.11.2014 03:30 5,2 C 88 % 1019,2 hPa 0,0 l/m 0,0 km/h (0 Bft) O-SO 121 0 min 0,000 mm 0,0 UV-I 0 W/m 3,4 C 5,2 C 0,0 km/h (0 Bft) 0,00 %
03.11.2014 03:45 5,2 C 88 % 1019,2 hPa 0,0 l/m 0,0 km/h (0 Bft) O-NO 74 0 min 0,000 mm 0,0 UV-I 0 W/m 3,4 C 5,2 C 0,0 km/h (0 Bft) 0,00 %
03.11.2014 04:00 5,2 C 88 % 1019,2 hPa 0,0 l/m 0,4 km/h (0 Bft) O 100 0 min 0,000 mm 0,0 UV-I 0 W/m 3,4 C 5,2 C 4,0 km/h (1 Bft) 0,00 %
03.11.2014 04:15 5,2 C 88 % 1019,2 hPa 0,0 l/m 4,0 km/h (1 Bft) O 90 0 min 0,000 mm 0,0 UV-I 0 W/m 3,4 C 5,2 C 7,9 km/h (2 Bft) 0,00 %
03.11.2014 04:30 5,1 C 88 % 1019,2 hPa 0,0 l/m 0,7 km/h (0 Bft) O-NO 78 0 min 0,000 mm 0,0 UV-I 0 W/m 3,3 C 5,1 C 4,0 km/h (1 Bft) 0,00 %
03.11.2014 04:45 5,2 C 88 % 1019,2 hPa 0,0 l/m 4,0 km/h (1 Bft) O-SO 119 0 min 0,000 mm 0,0 UV-I 0 W/m 3,4 C 5,2 C 7,9 km/h (2 Bft) 0,00 %
03.11.2014 05:00 5,2 C 88 % 1019,2 hPa 0,0 l/m 0,0 km/h (0 Bft) O-NO 74 0 min 0,000 mm 0,0 UV-I 0 W/m 3,4 C 5,2 C 0,0 km/h (0 Bft) 0,00 %
03.11.2014 05:15 5,2 C 89 % 1019,2 hPa 0,0 l/m 0,7 km/h (0 Bft) SO 124 0 min 0,000 mm 0,0 UV-I 0 W/m 3,5 C 5,2 C 4,0 km/h (1 Bft) 0,00 %
03.11.2014 05:30 5,3 C 89 % 1019,2 hPa 0,0 l/m 0,0 km/h (0 Bft) O-SO 112 0 min 0,000 mm 0,0 UV-I 0 W/m 3,6 C 5,3 C 0,0 km/h (0 Bft) 0,00 %
03.11.2014 05:45 5,2 C 90 % 1019,2 hPa 0,0 l/m 1,4 km/h (1 Bft) O 92 0 min 0,000 mm 0,0 UV-I 0 W/m 3,7 C 5,2 C 4,0 km/h (1 Bft) 0,00 %
03.11.2014 06:00 5,3 C 90 % 1019,2 hPa 0,0 l/m 0,0 km/h (0 Bft) O 92 0 min 0,000 mm 0,0 UV-I 0 W/m 3,8 C 5,3 C 0,0 km/h (0 Bft) 0,00 %
03.11.2014 06:15 5,3 C 90 % 1019,2 hPa 0,0 l/m 1,8 km/h (1 Bft) O 96 0 min 0,000 mm 0,0 UV-I 0 W/m 3,8 C 5,3 C 4,0 km/h (1 Bft) 0,00 %
03.11.2014 06:30 5,3 C 90 % 1019,2 hPa 0,0 l/m 0,4 km/h (0 Bft) SO 124 0 min 0,000 mm 0,0 UV-I 0 W/m 3,8 C 5,3 C 4,0 km/h (1 Bft) 0,00 %
03.11.2014 06:45 5,4 C 89 % 1019,2 hPa 0,0 l/m 0,0 km/h (0 Bft) O-SO 105 0 min 0,000 mm 0,0 UV-I 0 W/m 3,7 C 5,4 C 0,0 km/h (0 Bft) 0,00 %
03.11.2014 07:00 5,4 C 88 % 1019,2 hPa 0,0 l/m 2,2 km/h (1 Bft) O-SO 113 0 min 0,000 mm 0,0 UV-I 0 W/m 3,6 C 5,4 C 4,0 km/h (1 Bft) 0,00 %
03.11.2014 07:15 5,4 C 86 % 1019,2 hPa 0,0 l/m 1,4 km/h (1 Bft) SO 124 0 min 0,000 mm 0,0 UV-I 0 W/m 3,3 C 5,4 C 4,0 km/h (1 Bft) 0,00 %
03.11.2014 07:30 5,4 C 85 % 1019,2 hPa 0,0 l/m 0,0 km/h (0 Bft) SO 124 0 min 0,000 mm 0,0 UV-I 15 W/m 3,1 C 5,4 C 0,0 km/h (0 Bft) 0,00 %
03.11.2014 07:45 5,5 C 85 % 1019,2 hPa 0,0 l/m 0,0 km/h (0 Bft) SO 138 0 min 0,000 mm 0,0 UV-I 48 W/m 3,2 C 5,5 C 0,0 km/h (0 Bft) 0,00 %
03.11.2014 08:00 5,6 C 86 % 1019,1 hPa 0,3 l/m 0,4 km/h (0 Bft) O-SO 119 0 min 0,000 mm 0,0 UV-I 44 W/m 3,4 C 5,6 C 4,0 km/h (1 Bft) 0,00 %
03.11.2014 08:15 5,5 C 85 % 1019,2 hPa 0,0 l/m 0,0 km/h (0 Bft) O-SO 109 0 min 0,000 mm 1,0 UV-I 33 W/m 3,2 C 5,5 C 0,0 km/h (0 Bft) 0,00 %
03.11.2014 08:30 5,7 C 86 % 1019,1 hPa 0,0 l/m 4,7 km/h (1 Bft) O 97 0 min 0,000 mm 1,0 UV-I 55 W/m 3,5 C 5,7 C 7,9 km/h (2 Bft) 0,00 %
03.11.2014 08:45 5,7 C 86 % 1019,1 hPa 0,0 l/m 2,9 km/h (1 Bft) SO 141 0 min 0,000 mm 1,0 UV-I 56 W/m 3,5 C 5,7 C 4,0 km/h (1 Bft) 0,00 %
03.11.2014 09:00 5,8 C 86 % 1019,1 hPa 0,0 l/m 2,9 km/h (1 Bft) O-SO 117 0 min 0,000 mm 1,0 UV-I 67 W/m 3,6 C 5,8 C 7,9 km/h (2 Bft) 0,00 %
03.11.2014 09:15 5,9 C 86 % 1019,1 hPa 0,0 l/m 0,0 km/h (0 Bft) O-SO 112 0 min 0,000 mm 1,0 UV-I 78 W/m 3,7 C 5,9 C 0,0 km/h (0 Bft) 0,00 %
03.11.2014 09:30 5,9 C 86 % 1019,1 hPa 0,0 l/m 2,2 km/h (1 Bft) SO 128 0 min 0,000 mm 1,0 UV-I 89 W/m 3,7 C 5,9 C 4,0 km/h (1 Bft) 0,00 %
03.11.2014 09:45 6,0 C 86 % 1019,1 hPa 0,0 l/m 2,9 km/h (1 Bft) O-SO 118 0 min 0,000 mm 1,0 UV-I 88 W/m 3,8 C 6,0 C 4,0 km/h (1 Bft) 0,00 %
03.11.2014 10:00 6,0 C 86 % 1019,1 hPa 0,0 l/m 0,7 km/h (0 Bft) O-NO 72 0 min 0,000 mm 1,0 UV-I 77 W/m 3,8 C 6,0 C 4,0 km/h (1 Bft) 0,00 %
03.11.2014 10:15 6,0 C 86 % 1019,1 hPa 0,0 l/m 0,4 km/h (0 Bft) O-NO 74 0 min 0,000 mm 1,0 UV-I 66 W/m 3,8 C 6,0 C 4,0 km/h (1 Bft) 0,00 %
03.11.2014 10:30 6,0 C 86 % 1019,1 hPa 0,0 l/m 1,8 km/h (1 Bft) O-SO 113 0 min 0,000 mm 1,0 UV-I 67 W/m 3,8 C 6,0 C 4,0 km/h (1 Bft) 0,00 %
03.11.2014 10:45 6,1 C 86 % 1019,1 hPa 0,0 l/m 0,0 km/h (0 Bft) N-NW 332 0 min 0,000 mm 1,0 UV-I 99 W/m 3,9 C 6,1 C 0,0 km/h (0 Bft) 0,00 %
03.11.2014 11:00 6,2 C 86 % 1019,0 hPa 0,0 l/m 0,0 km/h (0 Bft) O 101 0 min 0,000 mm 1,0 UV-I 90 W/m 4,0 C 6,2 C 0,0 km/h (0 Bft) 0,00 %
03.11.2014 11:15 6,2 C 86 % 1019,0 hPa 0,0 l/m 0,4 km/h (0 Bft) O-SO 110 0 min 0,000 mm 1,0 UV-I 111 W/m 4,0 C 6,2 C 4,0 km/h (1 Bft) 0,00 %
03.11.2014 11:30 6,3 C 86 % 1019,0 hPa 0,0 l/m 0,4 km/h (0 Bft) O-SO 114 0 min 0,000 mm 1,0 UV-I 112 W/m 4,1 C 6,3 C 4,0 km/h (1 Bft) 0,00 %
03.11.2014 11:45 6,3 C 85 % 1019,0 hPa 0,0 l/m 0,4 km/h (0 Bft) O-SO 117 0 min 0,000 mm 1,0 UV-I 115 W/m 4,0 C 6,3 C 4,0 km/h (1 Bft) 0,00 %
03.11.2014 12:00 6,3 C 86 % 1019,0 hPa 0,0 l/m 0,4 km/h (0 Bft) O 90 0 min 0,000 mm 1,0 UV-I 119 W/m 4,1 C 6,3 C 4,0 km/h (1 Bft) 0,00 %
03.11.2014 12:15 6,3 C 86 % 1019,0 hPa 0,0 l/m 0,7 km/h (0 Bft) O 99 0 min 0,000 mm 1,0 UV-I 134 W/m 4,1 C 6,3 C 4,0 km/h (1 Bft) 0,00 %
03.11.2014 12:30 6,3 C 86 % 1019,0 hPa 0,0 l/m 4,7 km/h (1 Bft) O-SO 103 0 min 0,000 mm 1,0 UV-I 145 W/m 4,1 C 6,3 C 7,9 km/h (2 Bft) 0,00 %
03.11.2014 12:45 6,4 C 85 % 1019,0 hPa 0,0 l/m 5,8 km/h (2 Bft) O-SO 104 0 min 0,000 mm 1,0 UV-I 140 W/m 4,1 C 6,4 C 7,9 km/h (2 Bft) 0,00 %
03.11.2014 13:00 6,3 C 86 % 1019,0 hPa 0,0 l/m 0,0 km/h (0 Bft) O-NO 61 0 min 0,000 mm 1,0 UV-I 130 W/m 4,1 C 6,3 C 0,0 km/h (0 Bft) 0,00 %
03.11.2014 13:15 6,3 C 86 % 1019,0 hPa 0,0 l/m 0,4 km/h (0 Bft) N 354 0 min 0,000 mm 1,0 UV-I 120 W/m 4,1 C 6,3 C 4,0 km/h (1 Bft) 0,00 %
03.11.2014 13:30 6,2 C 86 % 1019,0 hPa 0,0 l/m 0,4 km/h (0 Bft) SO 129 0 min 0,000 mm 1,0 UV-I 135 W/m 4,0 C 6,2 C 4,0 km/h (1 Bft) 0,00 %
03.11.2014 13:45 6,3 C 86 % 1019,0 hPa 0,0 l/m 0,0 km/h (0 Bft) SO 140 0 min 0,000 mm 1,0 UV-I 138 W/m 4,1 C 6,3 C 0,0 km/h (0 Bft) 0,00 %
03.11.2014 14:00 6,3 C 86 % 1019,0 hPa 0,0 l/m 5,4 km/h (1 Bft) O-SO 108 0 min 0,000 mm 1,0 UV-I 140 W/m 4,1 C 6,3 C 7,9 km/h (2 Bft) 0,00 %
03.11.2014 14:15 6,2 C 86 % 1019,0 hPa 0,0 l/m 0,0 km/h (0 Bft) N-NW 346 0 min 0,000 mm 1,0 UV-I 120 W/m 4,0 C 6,2 C 0,0 km/h (0 Bft) 0,00 %
03.11.2014 14:30 6,1 C 86 % 1019,1 hPa 0,0 l/m 0,4 km/h (0 Bft) S 173 0 min 0,000 mm 0,0 UV-I 110 W/m 3,9 C 6,1 C 4,0 km/h (1 Bft) 0,00 %
03.11.2014 14:45 5,9 C 86 % 1019,1 hPa 0,0 l/m 6,5 km/h (2 Bft) O-SO 114 0 min 0,000 mm 0,0 UV-I 89 W/m 3,7 C 5,8 C 11,9 km/h (2 Bft) 0,00 %
03.11.2014 15:00 5,9 C 86 % 1019,1 hPa 0,0 l/m 0,4 km/h (0 Bft) SO 138 0 min 0,000 mm 0,0 UV-I 77 W/m 3,7 C 5,9 C 4,0 km/h (1 Bft) 0,00 %
03.11.2014 15:15 5,8 C 86 % 1019,1 hPa 0,0 l/m 6,8 km/h (2 Bft) O 79 0 min 0,000 mm 0,0 UV-I 34 W/m 3,6 C 5,5 C 11,9 km/h (2 Bft) 0,00 %
03.11.2014 15:30 5,7 C 86 % 1019,1 hPa 0,0 l/m 0,7 km/h (0 Bft) O 90 0 min 0,000 mm 0,0 UV-I 0 W/m 3,5 C 5,7 C 4,0 km/h (1 Bft) 0,00 %
03.11.2014 15:45 5,6 C 86 % 1019,1 hPa 0,0 l/m 0,0 km/h (0 Bft) NO 45 0 min 0,000 mm 0,0 UV-I 0 W/m 3,4 C 5,6 C 0,0 km/h (0 Bft) 0,00 %
03.11.2014 16:00 5,6 C 86 % 1019,1 hPa 0,0 l/m 4,7 km/h (1 Bft) SO 142 0 min 0,000 mm 0,0 UV-I 0 W/m 3,4 C 5,6 C 7,9 km/h (2 Bft) 0,00 %
03.11.2014 16:15 5,5 C 86 % 1019,2 hPa 0,0 l/m 0,4 km/h (0 Bft) O-SO 106 0 min 0,000 mm 0,0 UV-I 0 W/m 3,3 C 5,5 C 4,0 km/h (1 Bft) 0,00 %
03.11.2014 16:30 5,6 C 86 % 1019,1 hPa 0,0 l/m 0,4 km/h (0 Bft) S 189 0 min 0,000 mm 0,0 UV-I 0 W/m 3,4 C 5,6 C 4,0 km/h (1 Bft) 0,00 %
03.11.2014 16:45 5,5 C 85 % 1019,2 hPa 0,0 l/m 1,4 km/h (1 Bft) O-SO 102 0 min 0,000 mm 0,0 UV-I 0 W/m 3,2 C 5,5 C 4,0 km/h (1 Bft) 0,00 %
03.11.2014 17:00 5,5 C 85 % 1019,2 hPa 0,0 l/m 0,4 km/h (0 Bft) S 184 0 min 0,000 mm 0,0 UV-I 0 W/m 3,2 C 5,5 C 4,0 km/h (1 Bft) 0,00 %
03.11.2014 17:15 5,4 C 85 % 1019,2 hPa 0,0 l/m 2,2 km/h (1 Bft) SO 124 0 min 0,000 mm 0,0 UV-I 0 W/m 3,1 C 5,4 C 4,0 km/h (1 Bft) 0,00 %
03.11.2014 17:30 5,4 C 86 % 1019,2 hPa 0,0 l/m 7,2 km/h (2 Bft) O 89 0 min 0,000 mm 0,0 UV-I 0 W/m 3,3 C 4,7 C 7,9 km/h (2 Bft) 0,00 %
03.11.2014 17:45 5,3 C 86 % 1019,2 hPa 0,0 l/m 4,3 km/h (1 Bft) O 91 0 min 0,000 mm 0,0 UV-I 0 W/m 3,2 C 5,3 C 7,9 km/h (2 Bft) 0,00 %
03.11.2014 18:00 5,4 C 86 % 1019,2 hPa 0,0 l/m 0,0 km/h (0 Bft) O 84 0 min 0,000 mm 0,0 UV-I 0 W/m 3,3 C 5,4 C 0,0 km/h (0 Bft) 0,00 %
03.11.2014 18:15 5,3 C 86 % 1019,2 hPa 0,0 l/m 0,7 km/h (0 Bft) SO 124 0 min 0,000 mm 0,0 UV-I 0 W/m 3,2 C 5,3 C 4,0 km/h (1 Bft) 0,00 %
03.11.2014 18:30 5,3 C 86 % 1019,2 hPa 0,0 l/m 0,7 km/h (0 Bft) SO 132 0 min 0,000 mm 0,0 UV-I 0 W/m 3,2 C 5,3 C 4,0 km/h (1 Bft) 0,00 %
03.11.2014 18:45 5,4 C 86 % 1019,2 hPa 0,0 l/m 9,0 km/h (2 Bft) O 85 0 min 0,000 mm 0,0 UV-I 0 W/m 3,3 C 3,2 C 11,9 km/h (2 Bft) 0,00 %
03.11.2014 19:00 5,3 C 86 % 1019,2 hPa 0,0 l/m 4,0 km/h (1 Bft) O-SO 107 0 min 0,000 mm 0,0 UV-I 0 W/m 3,2 C 5,3 C 4,0 km/h (1 Bft) 0,00 %
03.11.2014 19:15 5,3 C 86 % 1019,2 hPa 0,0 l/m 4,0 km/h (1 Bft) SO 137 0 min 0,000 mm 0,0 UV-I 0 W/m 3,2 C 5,3 C 7,9 km/h (2 Bft) 0,00 %
03.11.2014 19:30 5,2 C 86 % 1019,2 hPa 0,0 l/m 9,0 km/h (2 Bft) O-SO 102 0 min 0,000 mm 0,0 UV-I 0 W/m 3,1 C 3,0 C 11,9 km/h (2 Bft) 0,00 %
03.11.2014 19:45 5,2 C 86 % 1019,2 hPa 0,0 l/m 5,4 km/h (1 Bft) O 91 0 min 0,000 mm 0,0 UV-I 0 W/m 3,1 C 5,2 C 7,9 km/h (2 Bft) 0,00 %
03.11.2014 20:00 5,1 C 86 % 1019,2 hPa 0,0 l/m 4,3 km/h (1 Bft) O 89 0 min 0,000 mm 0,0 UV-I 0 W/m 3,0 C 5,1 C 7,9 km/h (2 Bft) 0,00 %
03.11.2014 20:15 5,0 C 86 % 1019,2 hPa 0,0 l/m 13,0 km/h (3 Bft) O 84 0 min 0,000 mm 0,0 UV-I 0 W/m 2,9 C 0,2 C 19,8 km/h (3 Bft) 0,00 %
03.11.2014 20:30 5,0 C 86 % 1019,2 hPa 0,0 l/m 7,9 km/h (2 Bft) O 101 0 min 0,000 mm 0,0 UV-I 0 W/m 2,9 C 3,7 C 15,8 km/h (3 Bft) 0,00 %
03.11.2014 20:45 5,1 C 86 % 1019,2 hPa 0,0 l/m 0,4 km/h (0 Bft) O-NO 76 0 min 0,000 mm 0,0 UV-I 0 W/m 3,0 C 5,1 C 4,0 km/h (1 Bft) 0,00 %
03.11.2014 21:00 5,1 C 86 % 1019,2 hPa 0,0 l/m 9,4 km/h (2 Bft) O 87 0 min 0,000 mm 0,0 UV-I 0 W/m 3,0 C 2,6 C 11,9 km/h (2 Bft) 0,00 %
03.11.2014 21:15 5,1 C 86 % 1019,2 hPa 0,0 l/m 0,4 km/h (0 Bft) O-SO 108 0 min 0,000 mm 0,0 UV-I 0 W/m 3,0 C 5,1 C 4,0 km/h (1 Bft) 0,00 %
03.11.2014 21:30 5,1 C 87 % 1019,2 hPa 0,0 l/m 2,2 km/h (1 Bft) O 90 0 min 0,000 mm 0,0 UV-I 0 W/m 3,1 C 5,1 C 4,0 km/h (1 Bft) 0,00 %
03.11.2014 21:45 5,1 C 87 % 1019,2 hPa 0,0 l/m 2,9 km/h (1 Bft) O 93 0 min 0,000 mm 0,0 UV-I 0 W/m 3,1 C 5,1 C 4,0 km/h (1 Bft) 0,00 %
03.11.2014 22:00 5,0 C 87 % 1019,2 hPa 0,0 l/m 7,2 km/h (2 Bft) O 80 0 min 0,000 mm 0,0 UV-I 0 W/m 3,0 C 4,3 C 15,8 km/h (3 Bft) 0,00 %
03.11.2014 22:15 5,0 C 87 % 1019,2 hPa 0,0 l/m 0,0 km/h (0 Bft) O-SO 116 0 min 0,000 mm 0,0 UV-I 0 W/m 3,0 C 5,0 C 0,0 km/h (0 Bft) 0,00 %
03.11.2014 22:30 5,1 C 88 % 1019,2 hPa 0,0 l/m 4,0 km/h (1 Bft) O-SO 102 0 min 0,000 mm 0,0 UV-I 0 W/m 3,3 C 5,1 C 7,9 km/h (2 Bft) 0,00 %
03.11.2014 22:45 5,1 C 89 % 1019,2 hPa 0,0 l/m 9,0 km/h (2 Bft) O 88 0 min 0,000 mm 0,0 UV-I 0 W/m 3,4 C 2,9 C 11,9 km/h (2 Bft) 0,00 %
03.11.2014 23:00 5,0 C 89 % 1019,2 hPa 0,0 l/m 4,0 km/h (1 Bft) O 93 0 min 0,000 mm 0,0 UV-I 0 W/m 3,3 C 5,0 C 7,9 km/h (2 Bft) 0,00 %
03.11.2014 23:15 5,0 C 89 % 1019,2 hPa 0,0 l/m 0,7 km/h (0 Bft) O 91 0 min 0,000 mm 0,0 UV-I 0 W/m 3,3 C 5,0 C 4,0 km/h (1 Bft) 0,00 %
03.11.2014 23:30 5,0 C 89 % 1019,2 hPa 0,0 l/m 4,3 km/h (1 Bft) O 82 0 min 0,000 mm 0,0 UV-I 0 W/m 3,3 C 5,0 C 7,9 km/h (2 Bft) 0,00 %
_ Min-Zeit 00:15 07:30 11:00 - 00:15 - - - - - - 00:15 20:15 00:15 00:00
Minimum _ 5,0 C 85 % 1019,0 hPa - 0,0 km/h (0 Bft) - - - - - - 2,9 C 0,2 C 0,0 km/h (0 Bft) 0,00 %
_ Max-Zeit 12:45 05:45 00:00 08:00 20:15 - - 00:00 00:00 08:15 12:30 11:30 12:45 20:15 00:00
Maximum _ 6,4 C 90 % 1019,2 hPa 0,3 l/m 13,0 km/h
O (3 Bft)
- - 0 min 0,000 mm 1,0 UV-I 145 W/m 4,1 C 6,4 C 19,8 km/h
O (3 Bft)
0,00 %
Durchschnitt _ 5,5 C 87 % 1019,2 hPa #0,3 l/m 2,1 km/h (1 Bft) O - #0 min. #0,000 mm 1,0 UV-I 92 W/m 3,4 C 5,3 C 4,6 km/h (1 Bft) 0,00 %